HIMAWARI-8

Last updated on Oct. 29, 2020, 5:52 a.m. UTC

1 40267U 14060A   20302.51577156 -.00000279  00000-0  00000-0 0  9993
2 40267   0.0326 168.9716 0000763  38.6314 156.0719  1.00273197 22127
UTC
Height (km)
Latitude
Longitude
Inclination
Orbital Period
UTC large
Height (km)
Speed (km/s)
/
Latitude / Longitude
Inclination (degrees)
Orbital Period (minutes)
Azimuth
Elevation
Range (km)
Doppler Factor
iOS Compass Heading
iOS Angle

Next 30 passes for location: Hong Kong

Rise time Rise Azimuth (degrees) Set time Set Azimuth (degrees) Duration Max altitude (degrees)

No matching passes for this satellites